Visibility
15.0 15.0 4.9 6.2 0.1 15.0 9.2 8.0 15.0 15.0 15.0 15.0 15.0 15.0 15.0 15.0 15.0 15.0 15.0 15.0 15.0 15.0 15.0 15.0 15.0 15.0 15.0
0.1 0.1 0.1 1.5 4.9 12.2 3.7 8.1 15.0 15.0 15.0 15.0 15.0 15.0 15.0 15.0 15.0 15.0 15.0 15.0 15.0 15.0 15.0 15.0 15.0 15.0 15.0
0.1 0.5 0.3 0.5 0.3 6.1 10.3 6.8 15.0 15.0 15.0 15.0 15.0 15.0 15.0 15.0 15.0 15.0 15.0 15.0 15.0 15.0 15.0 15.0 0.7 15.0 15.0
0.2 0.1 0.9 0.2 15.0 1.3 1.6 8.6 15.0 15.0 15.0 15.0 15.0 15.0 15.0 15.0 15.0 15.0 15.0 15.0 15.0 15.0 15.0 15.0 12.1 15.0 15.0
0.2 0.2 0.1 0.1 0.1 5.8 3.5 5.9 15.0 15.0 15.0 15.0 15.0 15.0 15.0 15.0 15.0 15.0 15.0 15.0 15.0 15.0 15.0 0.7 15.0 15.0 15.0
0.8 1.6 6.2 7.6 4.4 7.5 6.7 7.8 15.0 15.0 15.0 15.0 15.0 15.0 15.0 15.0 15.0 15.0 15.0 15.0 15.0 15.0 15.0 0.3 15.0 15.0 15.0
6.8 4.0 4.7 3.3 6.6 7.5 8.0 9.2 15.0 15.0 15.0 15.0 15.0 15.0 15.0 15.0 15.0 15.0 15.0 15.0 15.0 15.0 13.3 0.4 15.0 15.0 15.0
4.5 4.1 3.0 2.1 5.8 7.0 5.7 8.2 14.9 15.0 15.0 15.0 15.0 15.0 15.0 15.0 15.0 15.0 15.0 15.0 15.0 15.0 14.0 9.6 15.0 15.0 15.0
4.9 5.6 4.3 2.8 4.3 4.1 2.4 6.6 3.4 15.0 15.0 15.0 15.0 15.0 15.0 15.0 15.0 15.0 15.0 15.0 15.0 15.0 15.0 14.9 15.0 15.0 15.0
0.1 0.5 3.0 3.4 4.5 5.6 5.1 0.4 0.9 0.4 15.0 14.1 15.0 15.0 11.9 15.0 15.0 15.0 15.0 15.0 15.0 15.0 15.0 15.0 5.9 14.5 1.1
0.6 0.4 1.1 2.2 4.0 6.5 6.9 0.1 0.0 0.1 15.0 0.0 0.2 15.0 6.8 15.0 15.0 15.0 15.0 15.0 15.0 15.0 15.0 15.0 10.4 11.8 0.2
13.1 1.3 0.6 0.2 0.7 10.7 10.8 9.3 6.8 0.0 13.2 0.0 0.0 0.1 0.0 15.0 15.0 15.0 15.0 15.0 15.0 15.0 15.0 15.0 13.8 8.1 10.5
0.4 15.0 15.0 0.9 0.1 0.1 0.1 0.1 0.0 2.0 0.1 0.0 0.0 0.0 0.0 0.1 15.0 15.0 15.0 15.0 15.0 15.0 15.0 15.0 15.0 15.0 15.0
15.0 14.1 7.0 0.1 0.1 0.1 0.0 0.1 0.0 0.1 0.1 0.0 0.1 0.0 0.7 15.0 15.0 15.0 15.0 15.0 15.0 15.0 15.0 15.0 15.0 15.0 15.0
9.1 10.1 7.5 0.6 0.1 0.2 0.1 0.1 1.5 0.5 0.1 0.1 10.1 15.0 15.0 0.2 15.0 15.0 15.0 15.0 15.0 15.0 15.0 15.0 15.0 15.0 15.0
8.8 3.8 0.1 0.1 0.1 0.1 0.1 0.1 1.1 13.9 15.0 0.7 0.1 0.1 5.3 15.0 15.0 15.0 15.0 15.0 15.0 15.0 15.0 15.0 15.0 15.0 15.0
7.3 0.2 0.1 0.1 0.1 0.1 0.1 0.1 0.4 10.5 2.4 3.4 0.2 15.0 15.0 15.0 15.0 15.0 15.0 15.0 15.0 15.0 15.0 15.0 15.0 15.0 15.0